| time (UTC) | temp F | wind direction | speed MPH | gust MPH | rain 1hr in | rain 24hr in | rain mn in | humidity % | barometer mb |
| 20260509093045 | 51 | 0 | 0.0 | 0.0 | 0.00 | 0.00 | 0.00 | 87 | 1021.9 |
| 20260509091556 | 52 | 0 | 0.0 | 0.0 | 0.00 | 0.00 | 0.00 | 86 | 1022.1 |
| 20260509090042 | 52 | 0 | 0.0 | 0.0 | 0.00 | 0.00 | 0.00 | 86 | 1022.3 |
| 20260509084541 | 53 | 0 | 0.0 | 0.0 | 0.00 | 0.00 | 0.00 | 85 | 1022.4 |
| 20260509083047 | 53 | 0 | 0.0 | 1.0 | 0.00 | 0.00 | 0.00 | 85 | 1022.6 |
| 20260509081556 | 55 | 0 | 0.0 | 1.0 | 0.00 | 0.00 | 0.00 | 82 | 1022.7 |
| 20260509080049 | 56 | 0 | 0.0 | 0.0 | 0.00 | 0.00 | 0.00 | 81 | 1022.6 |
| 20260509074545 | 56 | 0 | 0.0 | 0.0 | 0.00 | 0.00 | 0.00 | 79 | 1022.7 |
| 20260509073045 | 57 | 0 | 0.0 | 0.0 | 0.00 | 0.00 | 0.00 | 76 | 1022.7 |
| 20260509071540 | 58 | 0 | 0.0 | 0.0 | 0.00 | 0.00 | 0.00 | 74 | 1022.8 |
| 20260509070047 | 58 | 0 | 0.0 | 2.0 | 0.00 | 0.00 | 0.00 | 73 | 1022.6 |
| 20260509064542 | 59 | 0 | 0.0 | 0.0 | 0.00 | 0.00 | 0.00 | 72 | 1022.6 |
| 20260509063043 | 59 | 0 | 0.0 | 0.0 | 0.00 | 0.00 | 0.00 | 71 | 1022.5 |
| 20260509061555 | 60 | 0 | 0.0 | 1.0 | 0.00 | 0.00 | 0.00 | 69 | 1022.4 |
| 20260509060045 | 60 | 0 | 0.0 | 1.0 | 0.00 | 0.00 | 0.00 | 69 | 1022.4 |
| 20260509054555 | 60 | 277 | 0.0 | 6.0 | 0.00 | 0.00 | 0.00 | 67 | 1022.4 |
| 20260509053057 | 60 | 0 | 0.0 | 1.0 | 0.00 | 0.00 | 0.00 | 67 | 1022.4 |
| 20260509051548 | 60 | 0 | 0.0 | 1.0 | 0.00 | 0.00 | 0.00 | 68 | 1022.4 |
| 20260509050043 | 61 | 0 | 0.0 | 1.0 | 0.00 | 0.00 | 0.00 | 68 | 1022.2 |
| 20260509044545 | 61 | 0 | 0.0 | 1.0 | 0.00 | 0.00 | 0.00 | 69 | 1022.0 |
| 20260509043049 | 61 | 280 | 0.0 | 1.0 | 0.00 | 0.00 | 0.00 | 67 | 1021.9 |
| 20260509041543 | 62 | 0 | 0.0 | 1.0 | 0.00 | 0.00 | 0.00 | 65 | 1021.7 |
| 20260509040044 | 63 | 0 | 0.0 | 0.0 | 0.00 | 0.00 | 0.00 | 61 | 1021.6 |
| 20260509034542 | 63 | 0 | 0.0 | 0.0 | 0.00 | 0.00 | 0.00 | 60 | 1021.4 |
| 20260509033045 | 64 | 0 | 0.0 | 2.0 | 0.00 | 0.00 | 0.00 | 58 | 1021.3 |
| 20260509031548 | 65 | 0 | 0.0 | 2.0 | 0.00 | 0.00 | 0.00 | 56 | 1021.1 |
| 20260509030042 | 66 | 0 | 0.0 | 2.0 | 0.00 | 0.00 | 0.00 | 55 | 1021.1 |
| 20260509024542 | 67 | 0 | 0.0 | 1.0 | 0.00 | 0.00 | 0.00 | 54 | 1020.9 |
| 20260509023053 | 68 | 0 | 0.0 | 3.0 | 0.00 | 0.00 | 0.00 | 52 | 1020.9 |
| 20260509021546 | 68 | 0 | 0.0 | 3.0 | 0.00 | 0.00 | 0.00 | 50 | 1020.9 |
| 20260509020043 | 69 | 0 | 0.0 | 6.0 | 0.00 | 0.00 | 0.00 | 48 | 1020.9 |
| 20260509014543 | 70 | 279 | 2.0 | 6.0 | 0.00 | 0.00 | 0.00 | 47 | 1020.9 |
| 20260509013042 | 70 | 0 | 1.0 | 9.0 | 0.00 | 0.00 | 0.00 | 47 | 1020.9 |
| 20260509011548 | 70 | 254 | 1.0 | 11.0 | 0.00 | 0.00 | 0.00 | 47 | 1021.0 |
| 20260509010047 | 70 | 296 | 2.0 | 10.0 | 0.00 | 0.00 | 0.00 | 46 | 1021.1 |
| 20260509004545 | 70 | 0 | 1.0 | 7.0 | 0.00 | 0.00 | 0.00 | 48 | 1021.2 |
| 20260509003044 | 69 | 294 | 1.0 | 11.0 | 0.00 | 0.00 | 0.00 | 49 | 1021.3 |
| 20260509001550 | 69 | 0 | 0.0 | 5.0 | 0.00 | 0.00 | 0.00 | 50 | 1021.4 |
| 20260509000047 | 69 | 286 | 3.0 | 9.0 | 0.00 | 0.00 | 0.00 | 47 | 1021.4 |
| 20260508234546 | 69 | 303 | 0.0 | 8.0 | 0.00 | 0.00 | 0.00 | 49 | 1021.3 |
| 20260508233048 | 68 | 279 | 2.0 | 4.0 | 0.00 | 0.00 | 0.00 | 49 | 1021.4 |
| 20260508231604 | 68 | 254 | 2.0 | 9.0 | 0.00 | 0.00 | 0.00 | 49 | 1021.3 |
| 20260508230059 | 68 | 218 | 2.0 | 9.0 | 0.00 | 0.00 | 0.00 | 48 | 1021.5 |
| 20260508224555 | 68 | 251 | 4.0 | 7.0 | 0.00 | 0.00 | 0.00 | 48 | 1021.5 |
| 20260508223048 | 68 | 296 | 5.0 | 10.0 | 0.00 | 0.00 | 0.00 | 48 | 1021.7 |
| 20260508221551 | 68 | 222 | 3.0 | 7.0 | 0.00 | 0.00 | 0.00 | 47 | 1021.6 |
| 20260508220049 | 68 | 220 | 3.0 | 7.0 | 0.00 | 0.00 | 0.00 | 47 | 1021.7 |
| 20260508214619 | 67 | 289 | 4.0 | 11.0 | 0.00 | 0.00 | 0.00 | 48 | 1021.7 |
| 20260508213051 | 67 | 259 | 5.0 | 11.0 | 0.00 | 0.00 | 0.00 | 45 | 1021.8 |
| 20260508211549 | 66 | 229 | 2.0 | 12.0 | 0.00 | 0.00 | 0.00 | 46 | 1021.8 |
| 20260508210052 | 65 | 232 | 2.0 | 10.0 | 0.00 | 0.00 | 0.00 | 50 | 1021.8 |
| 20260508204545 | 65 | 277 | 3.0 | 10.0 | 0.00 | 0.00 | 0.00 | 54 | 1021.8 |
| 20260508203105 | 64 | 255 | 4.0 | 11.0 | 0.00 | 0.00 | 0.00 | 51 | 1021.9 |
| 20260508201547 | 63 | 278 | 1.0 | 10.0 | 0.00 | 0.00 | 0.00 | 57 | 1022.1 |
| 20260508200044 | 61 | 279 | 4.0 | 8.0 | 0.00 | 0.00 | 0.00 | 57 | 1022.2 |
| 20260508194549 | 61 | 242 | 2.0 | 8.0 | 0.00 | 0.00 | 0.00 | 56 | 1022.2 |
| 20260508193051 | 62 | 236 | 3.0 | 9.0 | 0.00 | 0.00 | 0.00 | 56 | 1022.1 |
| 20260508191543 | 60 | 258 | 4.0 | 11.0 | 0.00 | 0.00 | 0.00 | 58 | 1022.4 |
| 20260508190042 | 59 | 225 | 4.0 | 10.0 | 0.00 | 0.00 | 0.00 | 60 | 1022.4 |
| 20260508184540 | 59 | 244 | 2.0 | 10.0 | 0.00 | 0.00 | 0.00 | 61 | 1022.4 |
| 20260508183044 | 59 | 298 | 3.0 | 9.0 | 0.00 | 0.00 | 0.00 | 60 | 1022.4 |
| 20260508181551 | 58 | 221 | 4.0 | 11.0 | 0.00 | 0.00 | 0.00 | 64 | 1022.2 |
| 20260508180043 | 58 | 255 | 4.0 | 10.0 | 0.00 | 0.00 | 0.00 | 65 | 1022.3 |
| 20260508174555 | 58 | 230 | 5.0 | 10.0 | 0.00 | 0.00 | 0.00 | 65 | 1022.1 |
| 20260508173049 | 57 | 268 | 4.0 | 9.0 | 0.00 | 0.00 | 0.00 | 68 | 1021.9 |
| 20260508171546 | 56 | 252 | 2.0 | 5.0 | 0.00 | 0.00 | 0.00 | 70 | 1021.7 |
| 20260508170044 | 55 | 0 | 1.0 | 8.0 | 0.00 | 0.00 | 0.00 | 75 | 1021.3 |
| 20260508164550 | 54 | 217 | 1.0 | 5.0 | 0.00 | 0.00 | 0.00 | 76 | 1021.4 |
| 20260508163042 | 53 | 0 | 1.0 | 6.0 | 0.00 | 0.00 | 0.00 | 76 | 1021.5 |
| 20260508161543 | 53 | 115 | 1.0 | 4.0 | 0.00 | 0.00 | 0.00 | 79 | 1021.1 |
| 20260508160043 | 52 | 0 | 1.0 | 8.0 | 0.00 | 0.00 | 0.00 | 77 | 1021.3 |
| 20260508154545 | 52 | 188 | 2.0 | 8.0 | 0.00 | 0.00 | 0.00 | 78 | 1021.2 |
| 20260508153043 | 51 | 211 | 2.0 | 6.0 | 0.00 | 0.00 | 0.00 | 78 | 1021.3 |
| 20260508151545 | 51 | 0 | 0.0 | 8.0 | 0.00 | 0.00 | 0.00 | 81 | 1021.4 |
| 20260508150039 | 51 | 222 | 1.0 | 7.0 | 0.00 | 0.00 | 0.00 | 80 | 1021.8 |
| 20260508144546 | 51 | 250 | 3.0 | 8.0 | 0.00 | 0.00 | 0.00 | 80 | 1021.7 |
| 20260508143053 | 50 | 198 | 3.0 | 7.0 | 0.00 | 0.00 | 0.00 | 81 | 1021.6 |
| 20260508141543 | 50 | 220 | 3.0 | 11.0 | 0.00 | 0.00 | 0.00 | 82 | 1021.3 |
| 20260508140043 | 48 | 0 | 1.0 | 6.0 | 0.00 | 0.00 | 0.00 | 87 | 1020.8 |
| 20260508134548 | 48 | 0 | 0.0 | 0.0 | 0.00 | 0.00 | 0.00 | 90 | 1020.4 |
| 20260508133048 | 48 | 0 | 0.0 | 0.0 | 0.00 | 0.00 | 0.00 | 89 | 1020.1 |
| 20260508131545 | 48 | 0 | 0.0 | 1.0 | 0.00 | 0.00 | 0.00 | 89 | 1019.7 |
| 20260508130049 | 48 | 0 | 0.0 | 0.0 | 0.00 | 0.00 | 0.00 | 89 | 1019.5 |
| 20260508124548 | 48 | 0 | 0.0 | 0.0 | 0.00 | 0.00 | 0.00 | 89 | 1019.2 |
| 20260508123047 | 48 | 0 | 0.0 | 0.0 | 0.00 | 0.00 | 0.00 | 89 | 1019.1 |
| 20260508121549 | 48 | 0 | 0.0 | 0.0 | 0.00 | 0.00 | 0.00 | 89 | 1018.8 |
| 20260508120045 | 48 | 0 | 0.0 | 0.0 | 0.00 | 0.00 | 0.00 | 89 | 1018.7 |
| 20260508114551 | 48 | 0 | 0.0 | 0.0 | 0.00 | 0.00 | 0.00 | 89 | 1018.6 |
| 20260508113051 | 48 | 0 | 0.0 | 0.0 | 0.00 | 0.00 | 0.00 | 88 | 1018.4 |
| 20260508111557 | 48 | 0 | 0.0 | 0.0 | 0.00 | 0.00 | 0.00 | 88 | 1018.2 |
| 20260508110047 | 48 | 0 | 0.0 | 0.0 | 0.00 | 0.00 | 0.00 | 88 | 1018.1 |
| 20260508104544 | 48 | 0 | 0.0 | 0.0 | 0.00 | 0.00 | 0.00 | 88 | 1018.0 |
| 20260508103045 | 48 | 0 | 0.0 | 0.0 | 0.00 | 0.00 | 0.00 | 87 | 1017.9 |
| 20260508101542 | 49 | 0 | 0.0 | 0.0 | 0.00 | 0.00 | 0.00 | 87 | 1017.8 |
| 20260508100047 | 49 | 0 | 0.0 | 0.0 | 0.00 | 0.00 | 0.00 | 86 | 1017.6 |
| 20260508094546 | 49 | 0 | 0.0 | 0.0 | 0.00 | 0.00 | 0.00 | 86 | 1017.6 |